Time,TemperatureF,DewpointF,PressureIn,WindDirection,WindDirectionDegrees,WindSpeedMPH,WindSpeedGustMPH,Humidity,HourlyPrecipIn,Conditions,Clouds,dailyrainin,SoftwareType,DateUTC
2013-03-10 00:00:00,29.3,25.3,30.36,NNW,338,1.1,2.9,85,0.00,,,0.00,WUHU216HW,2013-03-10 05:00:00,
2013-03-10 00:05:00,29.1,25.1,30.36,North,0,0.4,2.9,85,0.00,,,0.00,WUHU216HW,2013-03-10 05:05:00,
2013-03-10 00:10:00,28.9,24.9,30.36,WNW,293,0.4,2.5,85,0.00,,,0.00,WUHU216HW,2013-03-10 05:10:00,
2013-03-10 00:15:00,28.9,24.9,30.36,NW,315,1.8,1.8,85,0.00,,,0.00,WUHU216HW,2013-03-10 05:15:00,
2013-03-10 00:20:00,29.1,25.1,30.36,WNW,293,0.0,1.8,85,0.00,,,0.00,WUHU216HW,2013-03-10 05:20:00,
2013-03-10 00:25:00,28.9,24.9,30.36,WNW,293,0.2,0.4,85,0.00,,,0.00,WUHU216HW,2013-03-10 05:25:00,
2013-03-10 00:30:00,28.9,24.9,30.36,NW,315,0.2,0.9,85,0.00,,,0.00,WUHU216HW,2013-03-10 05:30:00,
2013-03-10 00:35:00,28.9,24.9,30.36,NNW,338,0.9,1.1,85,0.00,,,0.00,WUHU216HW,2013-03-10 05:35:00,
2013-03-10 00:40:00,28.9,24.9,30.36,WNW,293,2.5,2.5,85,0.00,,,0.00,WUHU216HW,2013-03-10 05:40:00,
2013-03-10 00:45:00,28.9,24.9,30.37,WNW,293,4.3,4.3,85,0.00,,,0.00,WUHU216HW,2013-03-10 05:45:00,
2013-03-10 00:50:00,28.9,24.9,30.37,NW,315,2.5,4.3,85,0.00,,,0.00,WUHU216HW,2013-03-10 05:50:00,
2013-03-10 00:55:00,28.9,24.9,30.37,NW,315,2.7,4.5,85,0.00,,,0.00,WUHU216HW,2013-03-10 05:55:00,
2013-03-10 01:00:00,28.9,25.2,30.37,NNW,338,0.9,4.5,86,0.00,,,0.00,WUHU216HW,2013-03-10 06:00:00,
2013-03-10 01:05:00,28.7,25.0,30.37,WNW,293,4.0,4.3,86,0.00,,,0.00,WUHU216HW,2013-03-10 06:05:00,
2013-03-10 01:10:00,28.6,24.9,30.37,WNW,293,4.7,5.1,86,0.00,,,0.00,WUHU216HW,2013-03-10 06:10:00,
2013-03-10 01:15:00,28.4,24.7,30.37,WNW,293,2.0,5.1,86,0.00,,,0.00,WUHU216HW,2013-03-10 06:15:00,
2013-03-10 01:20:00,28.2,24.5,30.37,NW,315,1.1,4.7,86,0.00,,,0.00,WUHU216HW,2013-03-10 06:20:00,
2013-03-10 01:25:00,28.2,24.5,30.37,NW,315,0.7,2.2,86,0.00,,,0.00,WUHU216HW,2013-03-10 06:25:00,
2013-03-10 01:30:00,28.2,24.5,30.37,NW,315,0.7,1.8,86,0.00,,,0.00,WUHU216HW,2013-03-10 06:30:00,
2013-03-10 01:35:00,28.4,24.7,30.37,NW,315,1.8,2.5,86,0.00,,,0.00,WUHU216HW,2013-03-10 06:35:00,
2013-03-10 01:40:00,28.2,24.5,30.37,NW,315,1.8,2.5,86,0.00,,,0.00,WUHU216HW,2013-03-10 06:40:00,
2013-03-10 01:45:00,28.2,24.8,30.37,NW,315,2.5,3.4,87,0.00,,,0.00,WUHU216HW,2013-03-10 06:45:00,
2013-03-10 01:50:00,28.0,24.6,30.37,NW,315,2.5,3.6,87,0.00,,,0.00,WUHU216HW,2013-03-10 06:50:00,
2013-03-10 01:55:00,28.0,24.3,30.37,NW,315,4.0,5.4,86,0.00,,,0.00,WUHU216HW,2013-03-10 06:55:00,
2013-03-10 03:00:00,27.8,24.4,30.37,NW,315,4.9,5.4,87,0.00,,,0.00,WUHU216HW,2013-03-10 07:00:00,
2013-03-10 03:05:00,27.7,24.0,30.37,NW,315,3.1,5.4,86,0.00,,,0.00,WUHU216HW,2013-03-10 07:05:00,
2013-03-10 03:10:00,27.7,24.0,30.37,NW,315,2.2,5.1,86,0.00,,,0.00,WUHU216HW,2013-03-10 07:10:00,
2013-03-10 03:15:00,27.5,24.1,30.37,NW,315,1.3,5.1,87,0.00,,,0.00,WUHU216HW,2013-03-10 07:15:00,
2013-03-10 03:20:00,27.3,23.9,30.37,NW,315,1.8,4.0,87,0.00,,,0.00,WUHU216HW,2013-03-10 07:20:00,
2013-03-10 03:25:00,27.3,23.9,30.36,NW,315,2.2,3.4,87,0.00,,,0.00,WUHU216HW,2013-03-10 07:25:00,
2013-03-10 03:30:00,27.1,23.7,30.36,NW,315,1.3,2.9,87,0.00,,,0.00,WUHU216HW,2013-03-10 07:30:00,
2013-03-10 03:35:00,26.9,23.5,30.36,NW,315,0.9,3.4,87,0.00,,,0.00,WUHU216HW,2013-03-10 07:35:00,
2013-03-10 03:40:00,26.9,23.5,30.37,NW,315,2.2,3.4,87,0.00,,,0.00,WUHU216HW,2013-03-10 07:40:00,
2013-03-10 03:45:00,26.9,23.5,30.36,NW,315,2.7,3.4,87,0.00,,,0.00,WUHU216HW,2013-03-10 07:45:00,
2013-03-10 03:50:00,26.8,23.4,30.37,NW,315,2.9,3.4,87,0.00,,,0.00,WUHU216HW,2013-03-10 07:50:00,
2013-03-10 03:55:00,26.8,23.4,30.37,NW,315,2.2,4.7,87,0.00,,,0.00,WUHU216HW,2013-03-10 07:55:00,
2013-03-10 04:00:00,26.8,23.4,30.37,NW,315,1.1,4.7,87,0.00,,,0.00,WUHU216HW,2013-03-10 08:00:00,
2013-03-10 04:05:00,26.6,23.2,30.37,NW,315,0.4,2.2,87,0.00,,,0.00,WUHU216HW,2013-03-10 08:05:00,
2013-03-10 04:10:00,26.6,23.2,30.37,NW,315,0.7,1.1,87,0.00,,,0.00,WUHU216HW,2013-03-10 08:10:00,
2013-03-10 04:15:00,26.6,23.2,30.37,NW,315,2.5,3.4,87,0.00,,,0.00,WUHU216HW,2013-03-10 08:15:00,
2013-03-10 04:20:00,26.6,22.9,30.37,NW,315,1.8,3.6,86,0.00,,,0.00,WUHU216HW,2013-03-10 08:20:00,
2013-03-10 04:25:00,26.4,23.0,30.38,NW,315,3.4,4.0,87,0.00,,,0.00,WUHU216HW,2013-03-10 08:25:00,
2013-03-10 04:30:00,26.4,23.0,30.38,NW,315,4.7,4.7,87,0.00,,,0.00,WUHU216HW,2013-03-10 08:30:00,
2013-03-10 04:35:00,26.4,23.0,30.38,NW,315,5.4,5.4,87,0.00,,,0.00,WUHU216HW,2013-03-10 08:35:00,
2013-03-10 04:40:00,26.4,23.0,30.38,NW,315,0.7,5.4,87,0.00,,,0.00,WUHU216HW,2013-03-10 08:40:00,
2013-03-10 04:45:00,26.2,22.8,30.38,NW,315,1.1,5.4,87,0.00,,,0.00,WUHU216HW,2013-03-10 08:45:00,
2013-03-10 04:50:00,26.2,22.8,30.37,NW,315,0.2,2.5,87,0.00,,,0.00,WUHU216HW,2013-03-10 08:50:00,
2013-03-10 04:55:00,26.0,22.6,30.37,NW,315,0.0,2.5,87,0.00,,,0.00,WUHU216HW,2013-03-10 08:55:00,
2013-03-10 05:00:00,26.0,22.6,30.37,NW,315,0.0,0.4,87,0.00,,,0.00,WUHU216HW,2013-03-10 09:00:00,
2013-03-10 05:05:00,26.2,22.8,30.37,NW,315,0.0,0.4,87,0.00,,,0.00,WUHU216HW,2013-03-10 09:05:00,
2013-03-10 05:10:00,26.2,22.6,30.37,NW,315,0.2,0.4,86,0.00,,,0.00,WUHU216HW,2013-03-10 09:10:00,
2013-03-10 05:15:00,26.4,22.7,30.37,NW,315,0.0,0.4,86,0.00,,,0.00,WUHU216HW,2013-03-10 09:15:00,
2013-03-10 05:20:00,26.6,22.9,30.37,NW,315,0.2,1.1,86,0.00,,,0.00,WUHU216HW,2013-03-10 09:20:00,
2013-03-10 05:25:00,26.8,23.1,30.37,NW,315,1.1,2.0,86,0.00,,,0.00,WUHU216HW,2013-03-10 09:25:00,
2013-03-10 05:30:00,26.8,23.1,30.37,NW,315,0.4,2.2,86,0.00,,,0.00,WUHU216HW,2013-03-10 09:30:00,
2013-03-10 05:35:00,26.6,22.9,30.37,NW,315,1.1,2.2,86,0.00,,,0.00,WUHU216HW,2013-03-10 09:35:00,
2013-03-10 05:40:00,26.4,22.7,30.37,NW,315,0.0,1.3,86,0.00,,,0.00,WUHU216HW,2013-03-10 09:40:00,
2013-03-10 05:45:00,26.4,22.7,30.37,NW,315,0.7,1.3,86,0.00,,,0.00,WUHU216HW,2013-03-10 09:45:00,
2013-03-10 05:50:00,26.4,22.7,30.37,NW,315,0.4,1.3,86,0.00,,,0.00,WUHU216HW,2013-03-10 09:50:00,
2013-03-10 05:55:00,26.2,22.6,30.37,NW,315,1.8,2.2,86,0.00,,,0.00,WUHU216HW,2013-03-10 09:55:00,
2013-03-10 06:00:00,26.2,22.6,30.37,NW,315,2.0,2.7,86,0.00,,,0.00,WUHU216HW,2013-03-10 10:00:00,
2013-03-10 06:05:00,26.2,22.6,30.38,NW,315,2.5,3.1,86,0.00,,,0.00,WUHU216HW,2013-03-10 10:05:00,
2013-03-10 06:10:00,26.3,22.6,30.38,NW,315,0.0,3.4,86,0.00,,,0.00,WUHU216HW,2013-03-10 10:10:00,
2013-03-10 06:15:00,26.3,22.7,30.38,NW,315,1.8,3.4,86,0.00,,,0.00,WUHU216HW,2013-03-10 10:15:00,
2013-03-10 06:20:00,26.3,22.7,30.38,NW,315,2.0,2.0,86,0.00,,,0.00,WUHU216HW,2013-03-10 10:20:00,
2013-03-10 06:25:00,26.4,22.7,30.38,NW,315,1.8,2.7,86,0.00,,,0.00,WUHU216HW,2013-03-10 10:25:00,
2013-03-10 06:30:00,26.4,23.0,30.38,NW,315,0.4,2.7,87,0.00,,,0.00,WUHU216HW,2013-03-10 10:30:00,
2013-03-10 06:35:00,26.3,22.9,30.38,NW,315,0.7,1.8,87,0.00,,,0.00,WUHU216HW,2013-03-10 10:35:00,
2013-03-10 06:40:00,26.3,22.9,30.38,NW,315,1.8,1.8,87,0.00,,,0.00,WUHU216HW,2013-03-10 10:40:00,
2013-03-10 06:45:00,26.3,22.9,30.38,NW,315,2.2,2.2,87,0.00,,,0.00,WUHU216HW,2013-03-10 10:45:00,
2013-03-10 06:50:00,26.4,23.0,30.38,NW,315,0.9,2.7,87,0.00,,,0.00,WUHU216HW,2013-03-10 10:50:00,
2013-03-10 06:55:00,26.4,23.0,30.38,NW,315,0.4,2.7,87,0.00,,,0.00,WUHU216HW,2013-03-10 10:55:00,
2013-03-10 07:00:00,26.4,22.8,30.38,North,0,0.0,1.6,86,0.00,,,0.00,WUHU216HW,2013-03-10 11:00:00,
2013-03-10 07:05:00,26.7,23.0,30.38,NW,315,1.3,1.3,86,0.00,,,0.00,WUHU216HW,2013-03-10 11:05:00,
2013-03-10 07:10:00,26.9,23.2,30.38,North,0,0.0,1.3,86,0.00,,,0.00,WUHU216HW,2013-03-10 11:10:00,
2013-03-10 07:15:00,27.1,23.7,30.38,North,0,0.0,1.3,87,0.00,,,0.00,WUHU216HW,2013-03-10 11:15:00,
2013-03-10 07:20:00,27.2,23.8,30.38,North,0,0.0,0.0,87,0.00,,,0.00,WUHU216HW,2013-03-10 11:20:00,
2013-03-10 07:25:00,27.4,24.0,30.38,North,0,0.0,0.0,87,0.00,,,0.00,WUHU216HW,2013-03-10 11:25:00,
2013-03-10 07:30:00,27.4,23.8,30.39,North,0,0.0,0.0,86,0.00,,,0.00,WUHU216HW,2013-03-10 11:30:00,
2013-03-10 07:35:00,27.6,23.9,30.39,North,0,0.0,0.0,86,0.00,,,0.00,WUHU216HW,2013-03-10 11:35:00,
2013-03-10 07:40:00,27.6,24.2,30.39,North,0,0.0,0.0,87,0.00,,,0.00,WUHU216HW,2013-03-10 11:40:00,
2013-03-10 07:45:00,27.8,24.4,30.39,North,0,0.0,0.0,87,0.00,,,0.00,WUHU216HW,2013-03-10 11:45:00,
2013-03-10 07:50:00,28.1,24.7,30.39,North,0,0.0,0.0,87,0.00,,,0.00,WUHU216HW,2013-03-10 11:50:00,
2013-03-10 07:55:00,28.3,24.9,30.40,North,0,0.0,0.0,87,0.00,,,0.00,WUHU216HW,2013-03-10 11:55:00,
2013-03-10 08:00:00,28.5,24.9,30.40,North,0,0.0,0.0,86,0.00,,,0.00,WUHU216HW,2013-03-10 12:00:00,
2013-03-10 08:05:00,28.7,25.3,30.40,North,0,0.0,0.0,87,0.00,,,0.00,WUHU216HW,2013-03-10 12:05:00,
2013-03-10 08:10:00,28.9,25.5,30.40,North,0,0.0,0.0,87,0.00,,,0.00,WUHU216HW,2013-03-10 12:10:00,
2013-03-10 08:15:00,29.1,25.7,30.40,North,0,0.0,0.0,87,0.00,,,0.00,WUHU216HW,2013-03-10 12:15:00,
2013-03-10 08:20:00,29.2,25.7,30.40,North,0,0.0,0.0,87,0.00,,,0.00,WUHU216HW,2013-03-10 12:20:00,
2013-03-10 08:25:00,29.4,26.0,30.40,North,0,0.0,0.0,87,0.00,,,0.00,WUHU216HW,2013-03-10 12:25:00,
2013-03-10 08:30:00,29.6,26.5,30.41,North,0,0.0,0.0,88,0.00,,,0.00,WUHU216HW,2013-03-10 12:30:00,
2013-03-10 08:35:00,30.0,26.8,30.41,North,0,0.0,0.0,88,0.00,,,0.00,WUHU216HW,2013-03-10 12:35:00,
2013-03-10 08:40:00,30.2,27.0,30.41,North,0,0.0,0.0,88,0.00,,,0.00,WUHU216HW,2013-03-10 12:40:00,
2013-03-10 08:45:00,30.2,26.8,30.41,North,0,0.0,0.0,87,0.00,,,0.00,WUHU216HW,2013-03-10 12:45:00,
2013-03-10 08:50:00,30.4,26.7,30.41,North,0,0.0,0.0,86,0.00,,,0.00,WUHU216HW,2013-03-10 12:50:00,
2013-03-10 08:55:00,30.8,27.0,30.41,North,0,0.0,0.0,86,0.00,,,0.00,WUHU216HW,2013-03-10 12:55:00,
2013-03-10 09:00:00,31.0,27.3,30.41,North,0,0.0,0.0,86,0.00,,,0.00,WUHU216HW,2013-03-10 13:00:00,
2013-03-10 09:05:00,31.4,27.7,30.42,North,0,0.0,0.0,86,0.00,,,0.00,WUHU216HW,2013-03-10 13:05:00,
2013-03-10 09:10:00,31.6,27.9,30.41,North,0,0.0,0.0,86,0.00,,,0.00,WUHU216HW,2013-03-10 13:10:00,
2013-03-10 09:15:00,31.8,28.0,30.41,North,0,0.0,0.0,86,0.00,,,0.00,WUHU216HW,2013-03-10 13:15:00,
2013-03-10 09:20:00,31.8,28.1,30.42,North,0,0.0,0.0,86,0.00,,,0.00,WUHU216HW,2013-03-10 13:20:00,
2013-03-10 09:25:00,32.4,28.7,30.41,North,0,0.0,0.0,86,0.01,,,0.01,WUHU216HW,2013-03-10 13:25:00,
2013-03-10 09:30:00,33.1,29.1,30.41,North,0,0.0,0.0,85,0.01,,,0.01,WUHU216HW,2013-03-10 13:30:00,
2013-03-10 09:35:00,33.9,29.8,30.42,North,0,0.0,0.0,85,0.01,,,0.01,WUHU216HW,2013-03-10 13:35:00,
2013-03-10 09:40:00,34.3,30.2,30.42,NW,315,0.7,1.6,85,0.01,,,0.01,WUHU216HW,2013-03-10 13:40:00,
2013-03-10 09:45:00,34.6,30.5,30.42,SE,135,0.0,1.6,85,0.01,,,0.01,WUHU216HW,2013-03-10 13:45:00,
2013-03-10 09:50:00,35.4,31.6,30.42,NNW,338,0.4,0.7,86,0.01,,,0.01,WUHU216HW,2013-03-10 13:50:00,
2013-03-10 09:55:00,35.6,31.5,30.42,NNW,338,0.4,2.2,85,0.01,,,0.01,WUHU216HW,2013-03-10 13:55:00,
2013-03-10 10:00:00,36.0,31.6,30.42,NNW,338,1.3,2.2,84,0.01,,,0.01,WUHU216HW,2013-03-10 14:00:00,
2013-03-10 10:05:00,36.4,32.0,30.42,ESE,113,0.4,2.2,84,0.01,,,0.01,WUHU216HW,2013-03-10 14:05:00,
2013-03-10 10:10:00,36.5,32.1,30.42,NNE,23,0.9,2.9,84,0.01,,,0.01,WUHU216HW,2013-03-10 14:10:00,
2013-03-10 10:15:00,36.5,31.9,30.42,NW,315,3.1,3.6,83,0.01,,,0.01,WUHU216HW,2013-03-10 14:15:00,
2013-03-10 10:20:00,37.0,32.0,30.42,West,270,4.0,4.3,82,0.01,,,0.01,WUHU216HW,2013-03-10 14:20:00,
2013-03-10 10:25:00,37.0,31.7,30.42,NNW,338,1.1,4.3,81,0.00,,,0.01,WUHU216HW,2013-03-10 14:25:00,
2013-03-10 10:30:00,37.5,32.2,30.42,WNW,293,0.0,4.0,81,0.00,,,0.01,WUHU216HW,2013-03-10 14:30:00,
2013-03-10 10:35:00,38.4,33.1,30.42,SSE,158,0.4,1.6,81,0.00,,,0.01,WUHU216HW,2013-03-10 14:35:00,
2013-03-10 10:40:00,39.3,34.0,30.42,SSW,203,0.2,1.6,81,0.00,,,0.01,WUHU216HW,2013-03-10 14:40:00,
2013-03-10 10:45:00,39.9,34.6,30.42,WSW,248,0.4,1.1,81,0.00,,,0.01,WUHU216HW,2013-03-10 14:45:00,
2013-03-10 10:50:00,40.3,34.6,30.42,West,270,0.7,1.3,80,0.00,,,0.01,WUHU216HW,2013-03-10 14:50:00,
2013-03-10 10:55:00,40.7,34.7,30.42,WNW,293,0.4,1.8,79,0.00,,,0.01,WUHU216HW,2013-03-10 14:55:00,
2013-03-10 11:00:00,40.9,34.6,30.42,WNW,293,0.7,1.8,78,0.00,,,0.01,WUHU216HW,2013-03-10 15:00:00,
2013-03-10 11:05:00,41.4,35.1,30.42,WSW,248,0.4,1.6,78,0.00,,,0.01,WUHU216HW,2013-03-10 15:05:00,
2013-03-10 11:10:00,41.6,35.0,30.42,SSW,203,0.4,1.6,77,0.00,,,0.01,WUHU216HW,2013-03-10 15:10:00,
2013-03-10 11:15:00,41.8,34.9,30.42,South,180,0.7,1.6,76,0.00,,,0.01,WUHU216HW,2013-03-10 15:15:00,
2013-03-10 11:20:00,42.0,34.7,30.42,NW,315,0.7,1.3,75,0.00,,,0.01,WUHU216HW,2013-03-10 15:20:00,
2013-03-10 11:25:00,42.1,34.8,30.42,WNW,293,0.4,1.3,75,0.00,,,0.01,WUHU216HW,2013-03-10 15:25:00,
2013-03-10 11:30:00,42.5,34.9,30.42,NE,45,0.7,1.1,74,0.00,,,0.01,WUHU216HW,2013-03-10 15:30:00,
2013-03-10 11:35:00,42.8,34.8,30.41,NNW,338,0.7,1.3,73,0.00,,,0.01,WUHU216HW,2013-03-10 15:35:00,
2013-03-10 11:40:00,43.1,35.1,30.41,WNW,293,2.5,2.5,73,0.00,,,0.01,WUHU216HW,2013-03-10 15:40:00,
2013-03-10 11:45:00,43.1,34.4,30.41,NW,315,0.9,2.5,71,0.00,,,0.01,WUHU216HW,2013-03-10 15:45:00,
2013-03-10 11:50:00,43.1,34.4,30.41,WNW,293,0.4,2.5,71,0.00,,,0.01,WUHU216HW,2013-03-10 15:50:00,
2013-03-10 11:55:00,43.5,35.1,30.41,WNW,293,1.6,1.6,72,0.00,,,0.01,WUHU216HW,2013-03-10 15:55:00,
2013-03-10 12:00:00,43.7,35.3,30.41,SSW,203,0.4,2.0,72,0.00,,,0.01,WUHU216HW,2013-03-10 16:00:00,
2013-03-10 12:05:00,43.9,35.5,30.41,WNW,293,0.2,2.0,72,0.00,,,0.01,WUHU216HW,2013-03-10 16:05:00,
2013-03-10 12:10:00,44.4,36.0,30.41,NW,315,0.9,1.6,72,0.00,,,0.01,WUHU216HW,2013-03-10 16:10:00,
2013-03-10 12:15:00,44.6,35.9,30.41,SSW,203,1.1,1.8,71,0.00,,,0.01,WUHU216HW,2013-03-10 16:15:00,
2013-03-10 12:20:00,44.6,35.1,30.41,WSW,248,0.9,1.8,69,0.00,,,0.01,WUHU216HW,2013-03-10 16:20:00,
2013-03-10 12:25:00,44.4,35.3,30.41,NW,315,0.9,1.8,70,0.00,,,0.01,WUHU216HW,2013-03-10 16:25:00,
2013-03-10 12:30:00,44.4,35.0,30.41,North,0,1.1,2.5,69,0.00,,,0.01,WUHU216HW,2013-03-10 16:30:00,
2013-03-10 12:35:00,44.6,34.4,30.41,ESE,113,2.0,2.9,67,0.00,,,0.01,WUHU216HW,2013-03-10 16:35:00,
2013-03-10 12:40:00,44.4,33.5,30.41,East,90,2.7,4.9,65,0.00,,,0.01,WUHU216HW,2013-03-10 16:40:00,
2013-03-10 12:45:00,44.4,34.2,30.40,NW,315,0.9,4.9,67,0.00,,,0.01,WUHU216HW,2013-03-10 16:45:00,
2013-03-10 12:50:00,44.4,34.2,30.40,NW,315,0.4,2.7,67,0.00,,,0.01,WUHU216HW,2013-03-10 16:50:00,
2013-03-10 12:55:00,44.6,34.8,30.40,NNW,338,1.6,2.0,68,0.00,,,0.01,WUHU216HW,2013-03-10 16:55:00,
2013-03-10 13:00:00,44.8,35.0,30.40,WNW,293,1.3,3.4,68,0.00,,,0.01,WUHU216HW,2013-03-10 17:00:00,
2013-03-10 13:05:00,44.4,34.6,30.40,WSW,248,1.3,3.4,68,0.00,,,0.01,WUHU216HW,2013-03-10 17:05:00,
2013-03-10 13:10:00,44.2,34.4,30.40,West,270,0.7,2.0,68,0.00,,,0.01,WUHU216HW,2013-03-10 17:10:00,
2013-03-10 13:15:00,44.4,34.6,30.39,NW,315,0.2,1.3,68,0.00,,,0.01,WUHU216HW,2013-03-10 17:15:00,
2013-03-10 13:20:00,44.4,34.6,30.39,SE,135,0.4,2.2,68,0.00,,,0.01,WUHU216HW,2013-03-10 17:20:00,
2013-03-10 13:25:00,44.6,34.7,30.39,SE,135,2.5,2.5,68,0.00,,,0.01,WUHU216HW,2013-03-10 17:25:00,
2013-03-10 13:30:00,43.4,32.6,30.39,East,90,3.6,6.3,65,0.00,,,0.01,WUHU216HW,2013-03-10 17:30:00,
2013-03-10 13:35:00,42.3,31.1,30.39,ESE,113,5.1,6.3,64,0.00,,,0.01,WUHU216HW,2013-03-10 17:35:00,
2013-03-10 13:40:00,41.8,31.4,30.39,SSE,158,1.8,5.8,66,0.00,,,0.01,WUHU216HW,2013-03-10 17:40:00,
2013-03-10 13:45:00,42.3,32.2,30.38,East,90,3.8,5.1,67,0.00,,,0.01,WUHU216HW,2013-03-10 17:45:00,
2013-03-10 13:50:00,43.0,32.1,30.38,ESE,113,5.4,5.4,65,0.00,,,0.01,WUHU216HW,2013-03-10 17:50:00,
2013-03-10 13:55:00,42.3,31.5,30.38,SE,135,2.7,8.1,65,0.00,,,0.01,WUHU216HW,2013-03-10 17:55:00,
2013-03-10 14:00:00,43.6,33.1,30.38,WSW,248,1.3,8.1,66,0.00,,,0.01,WUHU216HW,2013-03-10 18:00:00,
2013-03-10 14:05:00,43.8,30.9,30.38,ESE,113,6.7,6.9,60,0.00,,,0.01,WUHU216HW,2013-03-10 18:05:00,
2013-03-10 14:10:00,42.0,30.4,30.38,ESE,113,3.4,6.9,63,0.00,,,0.01,WUHU216HW,2013-03-10 18:10:00,
2013-03-10 14:15:00,41.3,30.2,30.38,East,90,2.2,4.7,64,0.00,,,0.01,WUHU216HW,2013-03-10 18:15:00,
2013-03-10 14:20:00,41.0,29.5,30.38,SE,135,2.2,5.8,63,0.00,,,0.01,WUHU216HW,2013-03-10 18:20:00,
2013-03-10 14:25:00,41.3,30.5,30.38,ESE,113,2.9,5.8,65,0.00,,,0.01,WUHU216HW,2013-03-10 18:25:00,
2013-03-10 14:30:00,42.2,31.7,30.38,SW,225,1.1,4.5,66,0.00,,,0.01,WUHU216HW,2013-03-10 18:30:00,
2013-03-10 14:35:00,42.8,32.3,30.38,ESE,113,1.8,2.5,66,0.00,,,0.01,WUHU216HW,2013-03-10 18:35:00,
2013-03-10 14:40:00,42.9,32.4,30.38,SSE,158,1.1,2.5,66,0.00,,,0.01,WUHU216HW,2013-03-10 18:40:00,
2013-03-10 14:45:00,42.7,30.7,30.37,ESE,113,4.5,4.9,62,0.00,,,0.01,WUHU216HW,2013-03-10 18:45:00,
2013-03-10 14:50:00,41.8,31.0,30.37,ESE,113,2.7,4.9,65,0.00,,,0.01,WUHU216HW,2013-03-10 18:50:00,
2013-03-10 14:55:00,41.9,31.5,30.37,SE,135,1.6,4.5,66,0.00,,,0.01,WUHU216HW,2013-03-10 18:55:00,
2013-03-10 15:00:00,41.8,31.0,30.37,ENE,68,3.6,4.5,65,0.00,,,0.01,WUHU216HW,2013-03-10 19:00:00,
2013-03-10 15:05:00,40.9,29.7,30.37,SE,135,2.5,5.4,64,0.00,,,0.01,WUHU216HW,2013-03-10 19:05:00,
2013-03-10 15:10:00,40.4,29.7,30.37,SE,135,3.1,5.4,65,0.00,,,0.01,WUHU216HW,2013-03-10 19:10:00,
2013-03-10 15:15:00,40.6,30.6,30.37,East,90,4.5,5.4,67,0.00,,,0.01,WUHU216HW,2013-03-10 19:15:00,
2013-03-10 15:20:00,40.6,30.2,30.37,SE,135,0.2,6.0,66,0.00,,,0.01,WUHU216HW,2013-03-10 19:20:00,
2013-03-10 15:25:00,41.1,30.7,30.37,ESE,113,4.3,6.0,66,0.00,,,0.01,WUHU216HW,2013-03-10 19:25:00,
2013-03-10 15:30:00,41.4,30.6,30.36,SE,135,1.8,4.3,65,0.00,,,0.01,WUHU216HW,2013-03-10 19:30:00,
2013-03-10 15:35:00,41.7,30.5,30.36,ESE,113,3.6,4.3,64,0.00,,,0.01,WUHU216HW,2013-03-10 19:35:00,
2013-03-10 15:40:00,41.7,30.1,30.36,SE,135,4.0,6.3,63,0.00,,,0.01,WUHU216HW,2013-03-10 19:40:00,
2013-03-10 15:45:00,40.8,29.6,30.36,SE,135,0.9,6.3,64,0.00,,,0.01,WUHU216HW,2013-03-10 19:45:00,
2013-03-10 15:50:00,41.1,30.7,30.37,ESE,113,2.9,4.7,66,0.00,,,0.01,WUHU216HW,2013-03-10 19:50:00,
2013-03-10 15:55:00,41.1,30.3,30.36,SE,135,3.4,4.7,65,0.00,,,0.01,WUHU216HW,2013-03-10 19:55:00,
2013-03-10 16:00:00,40.6,30.2,30.36,East,90,1.1,5.6,66,0.00,,,0.01,WUHU216HW,2013-03-10 20:00:00,
2013-03-10 16:05:00,40.7,30.3,30.36,ESE,113,4.7,5.6,66,0.00,,,0.01,WUHU216HW,2013-03-10 20:05:00,
2013-03-10 16:10:00,41.0,31.0,30.36,ESE,113,2.7,4.7,67,0.00,,,0.01,WUHU216HW,2013-03-10 20:10:00,
2013-03-10 16:15:00,42.4,32.3,30.36,SW,225,1.3,4.7,67,0.00,,,0.01,WUHU216HW,2013-03-10 20:15:00,
2013-03-10 16:20:00,43.7,33.2,30.36,ESE,113,3.1,3.8,66,0.00,,,0.01,WUHU216HW,2013-03-10 20:20:00,
2013-03-10 16:25:00,43.6,32.4,30.36,ESE,113,2.9,5.6,64,0.00,,,0.01,WUHU216HW,2013-03-10 20:25:00,
2013-03-10 16:30:00,42.7,31.1,30.35,ESE,113,4.0,5.6,63,0.00,,,0.01,WUHU216HW,2013-03-10 20:30:00,
2013-03-10 16:35:00,41.6,30.8,30.35,East,90,5.8,6.5,65,0.00,,,0.01,WUHU216HW,2013-03-10 20:35:00,
2013-03-10 16:40:00,41.4,31.3,30.35,East,90,4.5,6.5,67,0.00,,,0.01,WUHU216HW,2013-03-10 20:40:00,
2013-03-10 16:45:00,40.8,30.8,30.35,ESE,113,4.3,6.9,67,0.00,,,0.01,WUHU216HW,2013-03-10 20:45:00,
2013-03-10 16:50:00,40.4,30.4,30.35,SE,135,6.3,7.4,67,0.00,,,0.01,WUHU216HW,2013-03-10 20:50:00,
2013-03-10 16:55:00,40.3,30.3,30.35,ESE,113,4.9,7.6,67,0.00,,,0.01,WUHU216HW,2013-03-10 20:55:00,
2013-03-10 17:00:00,39.8,30.2,30.35,SE,135,5.4,7.6,68,0.00,,,0.01,WUHU216HW,2013-03-10 21:00:00,
2013-03-10 17:05:00,40.0,30.4,30.36,East,90,2.0,6.5,68,0.00,,,0.01,WUHU216HW,2013-03-10 21:05:00,
2013-03-10 17:10:00,40.3,30.3,30.36,SE,135,4.9,5.6,67,0.00,,,0.01,WUHU216HW,2013-03-10 21:10:00,
2013-03-10 17:15:00,40.1,30.5,30.36,ESE,113,3.8,5.6,68,0.00,,,0.01,WUHU216HW,2013-03-10 21:15:00,
2013-03-10 17:20:00,39.7,30.1,30.36,ESE,113,2.0,5.6,68,0.00,,,0.01,WUHU216HW,2013-03-10 21:20:00,
2013-03-10 17:25:00,40.2,30.9,30.35,ESE,113,5.6,5.6,69,0.00,,,0.01,WUHU216HW,2013-03-10 21:25:00,
2013-03-10 17:30:00,40.3,30.7,30.35,SE,135,4.5,5.6,68,0.00,,,0.01,WUHU216HW,2013-03-10 21:30:00,
2013-03-10 17:35:00,40.7,31.0,30.35,SE,135,4.9,5.6,68,0.00,,,0.01,WUHU216HW,2013-03-10 21:35:00,
2013-03-10 17:40:00,41.4,31.3,30.35,SE,135,4.3,5.4,67,0.00,,,0.01,WUHU216HW,2013-03-10 21:40:00,
2013-03-10 17:45:00,41.7,31.7,30.34,ESE,113,5.1,5.6,67,0.00,,,0.01,WUHU216HW,2013-03-10 21:45:00,
2013-03-10 17:50:00,40.6,30.6,30.34,SSE,158,4.7,7.4,67,0.00,,,0.01,WUHU216HW,2013-03-10 21:50:00,
2013-03-10 17:55:00,40.2,30.9,30.35,ESE,113,3.6,7.4,69,0.00,,,0.01,WUHU216HW,2013-03-10 21:55:00,
2013-03-10 18:00:00,39.8,30.2,30.35,ESE,113,2.5,6.7,68,0.00,,,0.01,WUHU216HW,2013-03-10 22:00:00,
2013-03-10 18:05:00,39.4,30.1,30.35,SE,135,5.8,6.3,69,0.00,,,0.01,WUHU216HW,2013-03-10 22:05:00,
2013-03-10 18:10:00,39.0,29.7,30.35,SE,135,6.0,6.3,69,0.00,,,0.01,WUHU216HW,2013-03-10 22:10:00,
2013-03-10 18:15:00,38.2,29.7,30.35,ESE,113,2.9,6.0,71,0.00,,,0.01,WUHU216HW,2013-03-10 22:15:00,
2013-03-10 18:20:00,37.7,29.5,30.35,ESE,113,5.4,6.0,72,0.00,,,0.01,WUHU216HW,2013-03-10 22:20:00,
2013-03-10 18:25:00,37.0,29.3,30.35,ESE,113,4.9,5.8,73,0.00,,,0.01,WUHU216HW,2013-03-10 22:25:00,
2013-03-10 18:30:00,36.7,29.3,30.35,ESE,113,4.7,5.8,74,0.00,,,0.01,WUHU216HW,2013-03-10 22:30:00,
2013-03-10 18:35:00,36.3,29.2,30.35,SE,135,5.8,7.8,75,0.00,,,0.01,WUHU216HW,2013-03-10 22:35:00,
2013-03-10 18:40:00,35.9,29.1,30.34,ESE,113,5.1,8.7,76,0.00,,,0.01,WUHU216HW,2013-03-10 22:40:00,
2013-03-10 18:45:00,35.7,28.9,30.34,SSE,158,6.3,8.7,76,0.00,,,0.01,WUHU216HW,2013-03-10 22:45:00,
2013-03-10 18:50:00,35.5,28.7,30.35,ESE,113,6.3,8.5,76,0.00,,,0.01,WUHU216HW,2013-03-10 22:50:00,
2013-03-10 18:55:00,35.4,28.7,30.35,SE,135,5.4,6.9,76,0.00,,,0.01,WUHU216HW,2013-03-10 22:55:00,
2013-03-10 19:00:00,35.4,28.6,30.35,SE,135,5.8,6.9,76,0.00,,,0.01,WUHU216HW,2013-03-10 23:00:00,
2013-03-10 19:05:00,35.2,28.7,30.35,SE,135,5.6,6.9,77,0.00,,,0.01,WUHU216HW,2013-03-10 23:05:00,
2013-03-10 19:10:00,35.2,28.7,30.35,SSE,158,4.0,6.9,77,0.00,,,0.01,WUHU216HW,2013-03-10 23:10:00,
2013-03-10 19:15:00,35.2,29.1,30.35,SE,135,6.3,6.9,78,0.00,,,0.01,WUHU216HW,2013-03-10 23:15:00,
2013-03-10 19:20:00,35.2,29.1,30.35,SE,135,5.1,7.4,78,0.00,,,0.01,WUHU216HW,2013-03-10 23:20:00,
2013-03-10 19:25:00,35.2,29.1,30.35,ESE,113,6.3,8.5,78,0.00,,,0.01,WUHU216HW,2013-03-10 23:25:00,
2013-03-10 19:30:00,35.2,29.1,30.35,ESE,113,4.7,8.5,78,0.00,,,0.01,WUHU216HW,2013-03-10 23:30:00,
2013-03-10 19:35:00,35.2,29.4,30.35,ESE,113,3.1,8.5,79,0.00,,,0.01,WUHU216HW,2013-03-10 23:35:00,
2013-03-10 19:40:00,35.0,28.9,30.35,ESE,113,3.4,7.4,78,0.00,,,0.01,WUHU216HW,2013-03-10 23:40:00,
2013-03-10 19:45:00,35.2,29.1,30.35,SSE,158,5.1,7.4,78,0.00,,,0.01,WUHU216HW,2013-03-10 23:45:00,
2013-03-10 19:50:00,35.2,29.1,30.35,ESE,113,4.3,8.1,78,0.00,,,0.01,WUHU216HW,2013-03-10 23:50:00,
2013-03-10 19:55:00,35.2,29.1,30.35,SE,135,5.8,8.1,78,0.00,,,0.01,WUHU216HW,2013-03-10 23:55:00,
2013-03-10 20:00:00,35.2,29.4,30.35,SSE,158,5.6,7.2,79,0.00,,,0.01,WUHU216HW,2013-03-11 00:00:00,
2013-03-10 20:05:00,35.4,29.9,30.35,SE,135,3.1,8.3,80,0.00,,,0.01,WUHU216HW,2013-03-11 00:05:00,
2013-03-10 20:10:00,35.4,29.9,30.35,South,180,4.7,8.3,80,0.00,,,0.01,WUHU216HW,2013-03-11 00:10:00,
2013-03-10 20:15:00,35.4,29.9,30.35,SE,135,3.8,5.8,80,0.00,,,0.01,WUHU216HW,2013-03-11 00:15:00,
2013-03-10 20:20:00,35.2,29.4,30.35,SSE,158,4.7,6.9,79,0.00,,,0.01,WUHU216HW,2013-03-11 00:20:00,
2013-03-10 20:25:00,35.0,29.2,30.35,SSW,203,4.3,6.9,79,0.00,,,0.01,WUHU216HW,2013-03-11 00:25:00,
2013-03-10 20:30:00,35.0,29.2,30.36,SSE,158,3.6,6.5,79,0.00,,,0.01,WUHU216HW,2013-03-11 00:30:00,
2013-03-10 20:35:00,34.9,29.1,30.36,ESE,113,2.5,6.5,79,0.00,,,0.01,WUHU216HW,2013-03-11 00:35:00,
2013-03-10 20:40:00,34.9,29.1,30.35,SE,135,8.3,8.3,79,0.00,,,0.01,WUHU216HW,2013-03-11 00:40:00,
2013-03-10 20:45:00,34.9,29.1,30.35,SE,135,5.6,8.3,79,0.00,,,0.01,WUHU216HW,2013-03-11 00:45:00,
2013-03-10 20:50:00,34.9,29.1,30.35,SSE,158,5.4,8.3,79,0.00,,,0.01,WUHU216HW,2013-03-11 00:50:00,
2013-03-10 20:55:00,34.9,29.1,30.35,SSE,158,3.4,6.7,79,0.00,,,0.01,WUHU216HW,2013-03-11 00:55:00,
2013-03-10 21:00:00,34.9,29.1,30.34,ESE,113,3.1,6.3,79,0.00,,,0.01,WUHU216HW,2013-03-11 01:00:00,
2013-03-10 21:06:00,34.7,28.9,30.34,SE,135,5.8,6.0,79,0.00,,,0.01,WUHU216HW,2013-03-11 01:06:00,
2013-03-10 21:11:00,34.9,29.1,30.34,SE,135,6.3,6.9,79,0.00,,,0.01,WUHU216HW,2013-03-11 01:11:00,
2013-03-10 21:16:00,34.9,29.1,30.34,ESE,113,5.1,6.9,79,0.00,,,0.01,WUHU216HW,2013-03-11 01:16:00,
2013-03-10 21:21:00,34.9,29.4,30.34,ESE,113,7.2,7.4,80,0.00,,,0.01,WUHU216HW,2013-03-11 01:21:00,
2013-03-10 21:26:00,34.9,29.4,30.34,SSE,158,2.9,7.4,80,0.00,,,0.01,WUHU216HW,2013-03-11 01:26:00,
2013-03-10 21:31:00,34.9,29.4,30.33,SE,135,6.7,7.2,80,0.00,,,0.01,WUHU216HW,2013-03-11 01:31:00,
2013-03-10 21:36:00,34.9,29.4,30.34,SSW,203,3.6,6.9,80,0.00,,,0.01,WUHU216HW,2013-03-11 01:36:00,
2013-03-10 21:41:00,35.0,29.5,30.33,ESE,113,2.5,6.9,80,0.00,,,0.01,WUHU216HW,2013-03-11 01:41:00,
2013-03-10 21:46:00,35.0,29.5,30.33,SE,135,6.5,8.3,80,0.00,,,0.01,WUHU216HW,2013-03-11 01:46:00,
2013-03-10 21:51:00,35.0,29.5,30.33,SE,135,4.7,8.3,80,0.00,,,0.01,WUHU216HW,2013-03-11 01:51:00,
2013-03-10 21:56:00,35.0,29.8,30.33,SE,135,6.3,6.3,81,0.00,,,0.01,WUHU216HW,2013-03-11 01:56:00,
2013-03-10 22:01:00,35.0,30.1,30.33,South,180,4.5,6.3,82,0.00,,,0.01,WUHU216HW,2013-03-11 02:01:00,
2013-03-10 22:06:00,35.0,29.8,30.33,SSE,158,3.8,6.3,81,0.00,,,0.01,WUHU216HW,2013-03-11 02:06:00,
2013-03-10 22:11:00,35.0,29.8,30.33,SSE,158,4.3,6.3,81,0.00,,,0.01,WUHU216HW,2013-03-11 02:11:00,
2013-03-10 22:16:00,35.0,30.1,30.32,ESE,113,4.7,6.7,82,0.00,,,0.01,WUHU216HW,2013-03-11 02:16:00,
2013-03-10 22:21:00,35.0,30.1,30.32,ESE,113,2.7,8.7,82,0.00,,,0.01,WUHU216HW,2013-03-11 02:21:00,
2013-03-10 22:26:00,35.2,30.3,30.31,SSW,203,6.9,8.7,82,0.00,,,0.01,WUHU216HW,2013-03-11 02:26:00,
2013-03-10 22:31:00,35.0,30.1,30.31,SSE,158,7.6,8.3,82,0.00,,,0.01,WUHU216HW,2013-03-11 02:31:00,
2013-03-10 22:36:00,35.0,30.1,30.31,ESE,113,8.9,8.9,82,0.00,,,0.01,WUHU216HW,2013-03-11 02:36:00,
2013-03-10 22:41:00,35.0,30.1,30.31,SSE,158,5.8,9.2,82,0.00,,,0.01,WUHU216HW,2013-03-11 02:41:00,
2013-03-10 22:46:00,35.0,30.1,30.31,South,180,5.6,9.2,82,0.00,,,0.01,WUHU216HW,2013-03-11 02:46:00,
2013-03-10 22:51:00,35.0,30.1,30.31,SSE,158,5.8,7.6,82,0.00,,,0.01,WUHU216HW,2013-03-11 02:51:00,
2013-03-10 22:56:00,35.0,30.1,30.32,SSE,158,5.4,7.6,82,0.00,,,0.01,WUHU216HW,2013-03-11 02:56:00,
2013-03-10 23:01:00,35.0,30.1,30.33,SSE,158,3.6,6.9,82,0.00,,,0.01,WUHU216HW,2013-03-11 03:01:00,
2013-03-10 23:06:00,35.0,30.1,30.32,SSE,158,4.0,6.7,82,0.00,,,0.01,WUHU216HW,2013-03-11 03:06:00,
2013-03-10 23:11:00,34.9,30.0,30.33,SSW,203,2.7,6.5,82,0.00,,,0.01,WUHU216HW,2013-03-11 03:11:00,
2013-03-10 23:17:00,34.9,30.0,30.34,SW,225,1.6,5.6,82,0.00,,,0.01,WUHU216HW,2013-03-11 03:17:00,
2013-03-10 23:22:00,34.7,29.8,30.34,South,180,1.8,4.0,82,0.00,,,0.01,WUHU216HW,2013-03-11 03:22:00,
2013-03-10 23:27:00,34.7,29.8,30.34,SW,225,1.1,3.4,82,0.00,,,0.01,WUHU216HW,2013-03-11 03:27:00,
2013-03-10 23:32:00,34.7,29.8,30.34,SW,225,0.4,2.5,82,0.00,,,0.01,WUHU216HW,2013-03-11 03:32:00,
2013-03-10 23:37:00,34.5,29.6,30.33,SE,135,1.3,2.5,82,0.00,,,0.01,WUHU216HW,2013-03-11 03:37:00,
2013-03-10 23:42:00,34.5,29.3,30.33,SSE,158,0.9,2.0,81,0.00,,,0.01,WUHU216HW,2013-03-11 03:42:00,
2013-03-10 23:47:00,34.3,29.1,30.33,SW,225,0.7,2.7,81,0.00,,,0.01,WUHU216HW,2013-03-11 03:47:00,
2013-03-10 23:52:00,34.3,29.1,30.32,SSW,203,0.2,2.7,81,0.00,,,0.01,WUHU216HW,2013-03-11 03:52:00,
2013-03-10 23:57:00,34.3,29.1,30.33,SSE,158,0.7,2.0,81,0.00,,,0.01,WUHU216HW,2013-03-11 03:57:00,